Hourly Data Report for October 03, 2014

All times are specified in Local Standard Time (LST). Add 1 hour to adjust for Daylight Saving Time where and when it is observed.

PENTICTON A
BRITISH COLUMBIA

49°27'45.000" N
119°36'08.000" W
344.40 m
1126146
71889
YYF

Download Data

Hourly Data (October 2014)
Hourly Data Report for October 3, 2014
Temp Definition
°C
Dew Point Temp Definition
°C
Rel Hum Definition
%
Wind Dir Definition
10's deg

Wind Spd Definition
km/h
Visibility Definition
km
Stn Press Definition
kPa
Hmdx Definition


Wind Chill Definition


Weather Definition


TIME
00:00 Legend Double Dagger 5.4 -1.1 63 1 11 24.1 98.75     LegendNANA
01:00 Legend Double Dagger 5.5 -1.0 63 4 5 24.1 98.79     Clear
02:00 Legend Double Dagger 5.6 -0.7 64 2 9 24.1 98.78     LegendNANA
03:00 Legend Double Dagger 5.7 0.3 68 36 3 24.1 98.78     LegendNANA
04:00 Legend Double Dagger 4.4 -0.6 70 33 5 24.1 98.79     Mainly Clear
05:00 Legend Double Dagger 4.3 -0.5 71 35 5 24.1 98.77     LegendNANA
06:00 Legend Double Dagger 2.9 -0.6 78 4 7 24.1 98.77     LegendNANA
07:00 Legend Double Dagger 3.2 0.1 80 2 6 24.1 98.75     Mainly Clear
08:00 Legend Double Dagger 8.9 2.7 65 36 2 24.1 98.76     LegendNANA
09:00 Legend Double Dagger 10.8 3.4 60 16 4 24.1 98.71     LegendNANA
10:00 Legend Double Dagger 12.6 3.6 54 36 4 24.1 98.64     Mainly Clear
11:00 Legend Double Dagger 15.8 2.0 39 15 13 24.1 98.62     LegendNANA
12:00 Legend Double Dagger 16.7 0.9 34 16 21 24.1 98.48     LegendNANA
13:00 Legend Double Dagger 17.1 1.2 34 17 27 24.1 98.42     Cloudy
14:00 Legend Double Dagger 17.1 1.2 34 16 16 24.1 98.39     LegendNANA
15:00 Legend Double Dagger 17.6 2.1 35 16 14 24.1 98.35     LegendNANA
16:00 Legend Double Dagger 18.2 3.0 36 16 11 24.1 98.31     Cloudy
17:00 Legend Double Dagger 14.6 5.7 55 36 19 24.1 98.29     LegendNANA
18:00 Legend Double Dagger 13.4 5.4 58 35 9 24.1 98.23     LegendNANA
19:00 Legend Double Dagger 12.1 5.5 64 6 3 24.1 98.19     Mostly Cloudy
20:00 Legend Double Dagger 10.8 5.4 69 11 4 24.1 98.16     LegendNANA
21:00 Legend Double Dagger 10.9 4.8 66 36 1 24.1 98.15     LegendNANA
22:00 Legend Double Dagger 10.2 5.4 72 36 4 24.1 98.18     Mostly Cloudy
23:00 Legend Double Dagger 10.8 5.6 70 36 3 24.1 98.20     LegendNANA

Notes on Data Quality.

Legend

  • E = Estimated
  • M = Missing
  • NA = Not Available
  • ‡ = Partner data that is not subject to review by the National Climate Archives
Date modified: